Date String (YYYY-MM-DD hh:mm:ss) UTC,Instrument flags,Ambient pressure (hPa),Sample flow (lpm),Bypass flow (lpm),Sample temperature (°C),Ambient temperature (°C),ASC tube jacket temperature (°C),LED temperature (°C),Box temperature (°C),Sample RH (%),Span deviation,Mass concentration (μg/m³),Mass concentration (μg/m³),Mass concentration (μg/m³)
DateTimeUTC,F1_M11,P_M11,Q1_M11,Q2_M11,T1_M11,T2_M11,T3_M11,T4_M11,T5_M11,U1_M11,ZSPAN_M11,X0_M11,X2_M11,X1_M11
2022-03-31 00:00:00,,0816.5,5.00,0.00,23.9,23.1,00.0,32.9,25.8,08.1,0000.0,0005.30,0001.88,0001.03
2022-03-31 00:01:00,,0816.5,5.00,0.00,23.9,23.2,00.0,32.9,25.9,08.0,0000.0,0005.86,0001.89,0001.04
2022-03-31 00:02:00,,0816.5,5.00,0.00,23.9,23.2,00.0,32.9,25.9,07.7,0000.0,0006.73,0001.95,0001.06
2022-03-31 00:03:00,,0816.5,5.00,0.00,24.0,23.2,00.0,32.9,25.8,07.9,0000.0,0006.85,0001.97,0001.07
2022-03-31 00:04:00,,0816.5,5.00,0.00,24.0,23.2,00.0,32.9,25.9,07.8,0000.0,0006.85,0001.96,0001.06
2022-03-31 00:05:00,,0816.5,4.99,0.00,24.0,23.2,00.0,32.9,25.9,07.3,0000.0,0006.60,0001.92,0001.06
2022-03-31 00:06:00,,0816.5,5.01,0.00,24.0,23.2,00.0,32.9,25.8,07.4,0000.0,0005.69,0001.96,0001.07
2022-03-31 00:07:00,,0816.6,5.00,0.00,24.0,23.2,00.0,32.9,25.7,07.6,0000.0,0005.92,0002.04,0001.10
2022-03-31 00:08:00,,0816.7,4.99,0.00,24.0,23.2,00.0,32.9,25.8,07.7,0000.0,0005.96,0002.05,0001.11
2022-03-31 00:09:00,,0816.6,4.99,0.00,24.0,23.2,00.0,32.9,25.8,07.6,0000.0,0006.27,0002.14,0001.13
2022-03-31 00:10:00,,0816.4,4.99,0.00,24.0,23.1,00.0,32.9,25.7,07.3,0000.0,0006.38,0002.19,0001.15
2022-03-31 00:11:00,,0816.6,5.01,0.00,24.0,23.1,00.0,32.9,25.7,07.5,0000.0,0005.99,0002.21,0001.15
2022-03-31 00:12:00,,0816.7,5.01,0.00,23.9,23.1,00.0,32.9,25.7,07.5,0000.0,0005.59,0002.21,0001.15
2022-03-31 00:13:00,,0816.5,5.01,0.00,23.9,23.1,00.0,32.9,25.7,07.4,0000.0,0005.96,0002.18,0001.15
2022-03-31 00:14:00,,0816.8,4.98,0.00,23.9,23.1,00.0,32.9,25.7,07.4,0000.0,0005.93,0002.21,0001.16
2022-03-31 00:15:00,,0816.5,5.00,0.00,23.9,23.1,00.0,32.9,25.7,07.3,0000.0,0006.00,0002.24,0001.18
2022-03-31 00:16:00,,0816.6,5.00,0.00,23.9,23.1,00.0,32.9,25.6,07.2,0000.0,0006.14,0002.30,0001.20
2022-03-31 00:17:00,,0816.6,5.00,0.00,23.9,23.0,00.0,32.9,25.6,07.3,0000.0,0006.53,0002.36,0001.20
2022-03-31 00:18:00,,0816.6,5.01,0.00,23.9,23.0,00.0,32.9,25.6,07.5,0000.0,0007.54,0002.48,0001.21
2022-03-31 00:19:00,,0816.5,5.01,0.00,23.9,23.0,00.0,32.9,25.6,07.6,0000.0,0007.40,0002.48,0001.22
2022-03-31 00:20:00,,0816.6,5.00,0.00,23.9,23.0,00.0,32.9,25.6,07.2,0000.0,0007.30,0002.44,0001.24
2022-03-31 00:21:00,,0816.6,4.99,0.00,23.9,23.0,00.0,32.9,25.6,07.3,0000.0,0007.17,0002.42,0001.25
2022-03-31 00:22:00,,0816.6,4.99,0.00,23.9,23.0,00.0,32.9,25.6,07.2,0000.0,0007.26,0002.40,0001.25
2022-03-31 00:23:00,,0816.6,5.00,0.00,23.9,23.0,00.0,32.9,25.6,07.4,0000.0,0007.30,0002.40,0001.27
2022-03-31 00:24:00,,0816.6,5.00,0.00,23.9,23.0,00.0,32.8,25.6,07.5,0000.0,0006.45,0002.43,0001.28
2022-03-31 00:25:00,,0816.5,5.00,0.00,23.9,23.0,00.0,32.8,25.5,07.5,0000.0,0006.31,0002.49,0001.29
2022-03-31 00:26:00,,0816.5,5.00,0.00,23.8,23.0,00.0,32.8,25.5,07.3,0000.0,0006.35,0002.48,0001.30
2022-03-31 00:27:00,,0816.6,4.99,0.00,23.8,23.0,00.0,32.8,25.5,07.3,0000.0,0006.24,0002.44,0001.30
2022-03-31 00:28:00,,0816.5,5.00,0.00,23.8,23.0,00.0,32.8,25.5,07.2,0000.0,0006.13,0002.42,0001.30
2022-03-31 00:29:00,,0816.6,5.02,0.00,23.8,23.0,00.0,32.8,25.5,07.4,0000.0,0004.57,0002.23,0001.29
2022-03-31 00:30:00,,0816.7,5.00,0.00,23.8,22.9,00.0,32.8,25.5,07.3,0000.0,0004.42,0002.22,0001.28
2022-03-31 00:31:00,,0816.8,5.00,0.00,23.8,22.9,00.0,32.8,25.5,07.3,0000.0,0004.42,0002.21,0001.27
2022-03-31 00:32:00,,0816.7,4.99,0.00,23.8,22.9,00.0,32.8,25.5,07.3,0000.0,0004.35,0002.18,0001.26
2022-03-31 00:33:00,,0816.7,5.00,0.00,23.8,22.9,00.0,32.8,25.5,07.5,0000.0,0004.37,0002.21,0001.27
2022-03-31 00:34:00,,0816.8,5.01,0.00,23.8,22.9,00.0,32.8,25.5,07.3,0000.0,0004.48,0002.25,0001.27
2022-03-31 00:35:00,,0816.8,5.01,0.00,23.8,22.9,00.0,32.8,25.5,07.2,0000.0,0004.54,0002.26,0001.27
2022-03-31 00:36:00,,0816.8,5.00,0.00,23.8,22.9,00.0,32.8,25.5,07.5,0000.0,0004.38,0002.21,0001.26
2022-03-31 00:37:00,,0816.9,5.00,0.00,23.8,22.9,00.0,32.8,25.5,07.4,0000.0,0004.30,0002.20,0001.25
2022-03-31 00:38:00,,0816.8,5.00,0.00,23.8,22.9,00.0,32.8,25.5,07.5,0000.0,0004.39,0002.21,0001.24
2022-03-31 00:39:00,,0816.8,5.00,0.00,23.8,22.9,00.0,32.8,25.5,07.4,0000.0,0004.50,0002.21,0001.24
2022-03-31 00:40:00,,0816.8,5.00,0.00,23.8,22.9,00.0,32.8,25.5,07.4,0000.0,0004.61,0002.26,0001.26
2022-03-31 00:41:00,,0816.8,5.01,0.00,23.8,22.9,00.0,32.8,25.5,07.2,0000.0,0004.72,0002.27,0001.27
2022-03-31 00:42:00,,0816.8,5.00,0.00,23.8,22.9,00.0,32.8,25.5,07.2,0000.0,0005.03,0002.32,0001.28
2022-03-31 00:43:00,,0816.8,5.00,0.00,23.8,22.8,00.0,32.8,25.5,07.3,0000.0,0005.13,0002.36,0001.30
2022-03-31 00:44:00,,0816.8,5.01,0.00,23.8,22.9,00.0,32.8,25.5,07.4,0000.0,0005.07,0002.34,0001.30
2022-03-31 00:45:00,,0816.8,5.00,0.00,23.8,22.9,00.0,32.8,25.5,07.4,0000.0,0004.91,0002.30,0001.30
2022-03-31 00:46:00,,0816.8,4.99,0.00,23.8,22.9,00.0,32.8,25.5,07.3,0000.0,0004.95,0002.33,0001.30
2022-03-31 00:47:00,,0817.0,4.99,0.00,23.8,22.9,00.0,32.8,25.6,07.2,0000.0,0004.94,0002.34,0001.30
2022-03-31 00:48:00,,0817.1,4.99,0.00,23.8,22.9,00.0,32.8,25.6,07.3,0000.0,0004.89,0002.32,0001.30
2022-03-31 00:49:00,,0816.9,5.00,0.00,23.8,22.9,00.0,32.8,25.5,07.3,0000.0,0004.84,0002.31,0001.31
2022-03-31 00:50:00,,0817.1,5.01,0.00,23.8,22.9,00.0,32.8,25.5,07.3,0000.0,0004.69,0002.29,0001.30
2022-03-31 00:51:00,,0817.3,5.00,0.00,23.8,22.9,00.0,32.8,25.5,07.3,0000.0,0004.41,0002.19,0001.28
2022-03-31 00:52:00,,0817.1,4.99,0.00,23.8,22.9,00.0,32.8,25.5,07.4,0000.0,0004.40,0002.20,0001.27
2022-03-31 00:53:00,,0816.9,5.00,0.00,23.8,22.8,00.0,32.8,25.5,07.4,0000.0,0004.27,0002.20,0001.25
2022-03-31 00:54:00,,0817.0,5.00,0.00,23.8,22.8,00.0,32.8,25.5,07.4,0000.0,0004.18,0002.15,0001.23
2022-03-31 00:55:00,,0817.0,5.00,0.00,23.8,22.8,00.0,32.8,25.5,07.4,0000.0,0004.37,0002.22,0001.22
2022-03-31 00:56:00,,0816.9,5.00,0.00,23.8,22.9,00.0,32.8,25.5,07.5,0000.0,0004.54,0002.27,0001.22
2022-03-31 00:57:00,,0816.9,5.00,0.00,23.8,22.8,00.0,32.8,25.5,07.4,0000.0,0004.47,0002.24,0001.22
2022-03-31 00:58:00,,0816.9,5.00,0.00,23.8,22.8,00.0,32.8,25.5,07.3,0000.0,0004.44,0002.23,0001.22
2022-03-31 00:59:00,,0816.9,4.99,0.00,23.8,22.9,00.0,32.8,25.5,07.3,0000.0,0004.68,0002.28,0001.21
